Volver al catálogo

CZ-6A DEB

ActivoSSO
NORAD 55539·DEBRIS·🇨🇳 China

Lanzado Nov 11, 2022 desde Taiyuan Satellite Launch Center

Loading…

Próximos Pases (próximas 24 horas)

TLE

ActualizadoSource: Space-Track

Época: Sep 14, 2026, 00:00 UTC

1 55539U 22151YM  26257.00025603  .00003848  00000-0  15086-2 0  9991
2 55539  98.8182 277.3471 0067926  81.2705 279.6162 14.28727617193268

Sigue CZ-6A DEB en tiempo real con AllMySat

Download on the App Store